[[{"header":{"parameterUnit":"m.s-1","parameterCategory":1,"la1":30.2991,"la2":30.254,"lo1":-89.0895,"lo2":-89.0444,"dy":0.0017,"dx":0.0017,"nx":28,"ny":28,"refTime":"2025-07-26T21:00:00:Z","depth":0,"parameterNumber":2,"parameterNumberName":"U-component_of_WINDS"},"data":[0,0,0,0,0,0,0,0,0,0,0,0,0,0,0,0,0,0,0,0,0,0,0,0,0,0,0,0,0,0,0,0,0,0,0,0,0,0,0,0,0,0,0,0,0,0,0,0,0,0,0,0,0,0,0,0,0,0,4.0006,4.0007,0,4.0094,4.0095,4.0096,4.0005,4.0001,3.9997,3.9994,4.0087,4.0092,4.0098,0,0,0,0,0,0,0,0,0,0,0,0,0,3.9757,3.9762,4.0006,4.0007,4.0008,4.0094,4.0096,4.0097,4.0005,4.0001,3.9997,3.9992,4.0085,4.0092,4.0099,0,0,0,0,0,0,0,0,0,0,0,0,0,3.9858,3.9764,4.0006,3.9973,3.9971,4.0094,4.0096,4.0097,4.0006,4.0001,3.9995,3.999,4.0083,4.0091,4.01,4.026,0,0,4.0126,4.013,0,0,0,0,0,0,0,0,3.9852,3.9867,3.9976,3.9975,3.9973,4.0033,4.0042,4.0152,4.0008,3.9993,3.9994,3.9988,4.0073,4.0082,4.0111,4.0265,4.0269,4.0127,4.0132,4.0136,4.0138,0,0,0,0,0,0,0,3.9845,3.9862,4.0041,3.9978,3.9976,3.9953,3.9962,4.0062,4.0062,3.9994,3.9987,3.9999,4.0071,4.0103,4.0112,4.027,4.0127,4.0134,4.014,4.0143,4.0557,4.0563,0,0,0,0,0,0,3.9842,3.9857,4.0038,4.0044,3.9898,3.9962,3.9972,4.0019,4.0061,4.0062,4.0003,3.9994,4.0091,4.0102,4.0115,4.0304,4.0136,4.0144,4.0149,4.0551,4.0558,4.0565,0,0,0,0,0,0,3.9837,3.9859,4.0034,3.9949,3.9969,3.9972,4.0026,4.0024,4.0055,4.0068,4.0068,4.0035,4.0087,4.0103,4.0224,4.0306,4.0148,4.0156,4.0545,4.0554,4.0562,4.0684,0,0,0,0,0,0,3.983,3.9858,3.9919,3.9951,3.9974,4.0142,4.0032,4.0029,4.007,4.0059,4.0098,4.0099,4.0084,4.0212,4.0233,4.0315,4.0163,4.0537,4.0549,4.0559,4.0673,4.0696,4.0716,0,0,0,0,0,3.9822,3.9951,3.9922,3.9945,4.0051,4.0147,4.0161,4.014,4.0077,4.0138,4.0146,4.0098,4.0294,4.0225,4.0248,4.0334,4.0532,4.0545,4.0558,4.0663,4.0691,4.0715,0,0,0,0,0,0,3.993,3.9955,3.9923,4.0067,4.0106,4.0132,4.0208,4.0171,4.0229,4.0216,4.0188,4.0198,4.0325,4.0342,4.0265,4.049,4.0403,4.0421,4.0475,4.0502,4.0523,4.0515,4.017,0,0,0,0,0,3.997,4.0046,4.0064,4.0189,4.021,4.0206,4.0247,4.0227,4.0267,4.0283,4.03,4.034,4.041,4.0457,4.0522,4.0675,4.0681,4.0745,4.0767,4.0784,4.08,4.0879,4.0907,4.0607,4.0607,4.0607,0,0,4.0055,4.0078,4.0128,4.0211,4.0239,4.0317,4.022,4.0309,4.0366,4.0296,4.0411,4.0425,4.0467,4.0604,4.0665,4.0622,4.0884,4.0801,4.0815,4.0821,4.0896,4.0924,4.0949,4.0616,4.0615,4.0613,0,0,4.0249,4.0275,4.038,4.0409,4.0452,4.0448,4.0473,4.0505,4.0511,4.0625,4.0573,4.0642,4.0764,4.0796,4.0828,4.1032,4.0989,4.1054,4.1166,4.1244,4.1267,4.1288,4.1359,4.1385,4.107,4.1071,4.1071,0,4.0349,4.0465,4.044,4.0531,4.0568,4.0507,4.0613,4.0643,4.0705,4.0732,4.0682,4.0832,4.0857,4.0999,4.1048,4.1077,4.1104,4.1049,4.1266,4.1287,4.1306,4.1372,4.1399,4.1078,4.1077,4.1076,4.1076,0,4.0585,4.0666,4.0747,4.0806,4.0853,4.0951,4.094,4.099,4.0966,4.0967,4.1083,4.1111,4.1179,4.1212,4.119,4.1351,4.1322,4.127,4.1181,4.1342,4.1404,4.143,4.1089,4.1086,4.1084,4.1082,0,0,4.085,4.0893,4.0923,4.0948,4.0989,4.1052,4.1147,4.1212,4.1255,4.13,4.1378,4.1481,4.1432,4.1469,4.145,4.1519,4.1675,4.1458,4.1458,4.1495,4.1851,4.1889,4.1919,4.1647,4.1652,4.1656,4.1847,0,4.1044,4.1207,4.1186,4.1343,4.1416,4.1358,4.1441,4.1475,4.1478,4.1541,4.1545,4.1618,4.1549,4.157,4.1636,4.1643,4.1746,4.1629,4.1718,4.1722,4.1708,4.1952,4.1993,4.2171,4.1871,4.1875,4.1878,0,4.1291,4.1343,4.1507,4.1534,4.1564,4.1638,4.1696,4.1757,4.1794,4.1791,4.1831,4.1799,4.1893,4.1804,4.1932,4.1852,4.1888,4.1897,4.1903,4.191,4.1809,4.1963,4.2228,4.2254,4.1917,4.1914,4.1911,0,4.1466,4.1576,4.1688,4.1711,4.1747,4.18,4.1817,4.1849,4.1889,4.194,4.1965,4.2027,4.206,4.2108,4.2093,4.2029,4.2224,4.2133,4.2223,4.2224,4.2266,4.2264,4.2539,4.2292,4.2292,4.2292,4.2291,0,4.1683,4.1785,4.1766,4.1835,4.1947,4.1921,4.2032,4.2043,4.2071,4.214,4.2094,4.216,4.2137,4.2201,4.2191,4.2297,4.2313,4.2313,4.2309,4.2316,4.2316,4.2338,4.2325,4.2299,4.2297,4.2296,4.2294,0,4.1896,4.1888,4.2005,4.2029,4.2037,4.2118,4.2138,4.2202,4.2201,4.2288,4.2307,4.2307,4.2379,4.2369,4.2452,4.2444,4.2576,4.2558,4.2563,4.2558,4.2648,4.2639,4.2946,4.2984,4.2715,4.2718,4.272,0,4.2035,4.2111,4.2142,4.2184,4.2205,4.2274,4.2314,4.2292,4.2335,4.2381,4.244,4.2508,4.2562,4.2681,4.2687,4.2749,4.2731,4.2834,4.274,4.2744,4.273,4.2725,4.2731,4.2852,4.2855,4.2858,4.286,0,4.2281,4.2272,4.2331,4.2389,4.2438,4.2482,4.2522,4.256,4.254,4.2592,4.2665,4.2706,4.2788,4.2857,4.2914,4.2932,4.2893,4.2889,4.2913,4.2921,4.292,4.2919,4.2612,4.2882,4.288,4.2878,4.2877,4.2876,4.2459,4.2524,4.2555,4.2621,4.2649,4.2687,4.2747,4.2753,4.2813,4.2877,4.286,4.2943,4.2976,4.3049,4.3072,4.3136,4.3098,4.3133,4.3142,4.315,4.316,4.2911,4.3147,4.3146,4.3145,4.3145,4.3144,0,4.2701,4.2717,4.2779,4.2835,4.2888,4.2845,4.2887,4.2933,4.3006,4.3039,4.3092,4.3175,4.3241,4.3252,4.3313,4.3362,4.3346,4.3379,4.3374,4.3378,4.3191,4.3163,4.3391,4.3391,4.3391,4.3391,4.3391,4.3391,4.2832,4.2938,4.2933,4.3051,4.3067,4.3146,4.3173,4.3208,4.3234,4.3328,4.3382,4.3388,4.3412,4.3475,4.3532,4.3533,4.3558,4.3598,4.3592,4.3417,4.3392,4.3369,4.3342,4.3604,4.3604,4.3774,4.3775,4.3776]},{"header":{"parameterUnit":"m.s-1","parameterCategory":1,"la1":30.2991,"la2":30.254,"lo1":-89.0895,"lo2":-89.0444,"dy":0.0017,"dx":0.0017,"nx":28,"ny":28,"refTime":"2025-07-26T21:00:00:Z","depth":0,"parameterNumber":3,"parameterNumberName":"V-component_of_WINDS"},"data":[0,0,0,0,0,0,0,0,0,0,0,0,0,0,0,0,0,0,0,0,0,0,0,0,0,0,0,0,0,0,0,0,0,0,0,0,0,0,0,0,0,0,0,0,0,0,0,0,0,0,0,0,0,0,0,0,0,0,1.0652,1.0652,0,1.0667,1.0667,1.0667,1.0636,1.0635,1.0634,1.0633,1.065,1.0651,1.0653,0,0,0,0,0,0,0,0,0,0,0,0,0,1.0596,1.0597,1.0652,1.0652,1.0652,1.0667,1.0667,1.0667,1.0636,1.0635,1.0633,1.0632,1.0649,1.0651,1.0653,0,0,0,0,0,0,0,0,0,0,0,0,0,1.0617,1.0598,1.0652,1.0638,1.0637,1.0667,1.0667,1.0667,1.0636,1.0635,1.0633,1.0632,1.0649,1.0651,1.0653,1.0697,0,0,1.066,1.0661,0,0,0,0,0,0,0,0,1.0616,1.0619,1.064,1.0639,1.0638,1.0648,1.0654,1.0678,1.0637,1.0637,1.0633,1.0631,1.0651,1.0652,1.0659,1.0698,1.0699,1.066,1.0661,1.0662,1.0663,0,0,0,0,0,0,0,1.0614,1.0618,1.0658,1.064,1.0639,1.0631,1.0633,1.0658,1.0652,1.0637,1.0634,1.0636,1.065,1.0657,1.0659,1.0699,1.066,1.0662,1.0663,1.0664,1.0773,1.0775,0,0,0,0,0,0,1.0614,1.0617,1.0657,1.0658,1.0623,1.0634,1.0635,1.0646,1.0652,1.0651,1.0638,1.0635,1.0654,1.0657,1.0659,1.071,1.0662,1.0664,1.0665,1.0772,1.0774,1.0775,0,0,0,0,0,0,1.0613,1.0618,1.0657,1.0637,1.0641,1.0636,1.0649,1.0647,1.0654,1.0653,1.0652,1.0646,1.0653,1.0656,1.0687,1.071,1.0665,1.0667,1.077,1.0772,1.0774,1.0813,0,0,0,0,0,0,1.0612,1.0618,1.0635,1.0638,1.0642,1.0685,1.0651,1.0649,1.0658,1.0654,1.066,1.066,1.0652,1.0684,1.069,1.0712,1.0669,1.0768,1.0771,1.0774,1.081,1.0816,1.0822,0,0,0,0,0,1.061,1.0646,1.0636,1.0641,1.0663,1.0686,1.0689,1.0679,1.066,1.0677,1.0675,1.0659,1.0707,1.0688,1.0693,1.0717,1.0766,1.077,1.0773,1.0807,1.0815,1.0822,0,0,0,0,0,0,1.0647,1.0646,1.0635,1.0673,1.068,1.0681,1.0702,1.0688,1.0701,1.0697,1.0685,1.0686,1.0719,1.0722,1.07,1.0759,1.0733,1.0738,1.0757,1.0765,1.0771,1.077,1.067,0,0,0,0,0,1.066,1.0678,1.0676,1.071,1.0714,1.0707,1.0717,1.0708,1.0715,1.0718,1.0719,1.0726,1.0742,1.0754,1.0769,1.081,1.081,1.0829,1.0835,1.084,1.0844,1.0864,1.0872,1.0787,1.0787,1.0787,0,0,1.0686,1.0688,1.07,1.0717,1.0722,1.074,1.071,1.0732,1.0746,1.0721,1.075,1.0751,1.0758,1.0794,1.081,1.0797,1.0868,1.0845,1.0849,1.085,1.0869,1.0877,1.0884,1.079,1.0789,1.0789,0,0,1.0744,1.0747,1.0775,1.0779,1.0785,1.078,1.0787,1.0789,1.0789,1.0817,1.0799,1.0815,1.0844,1.0849,1.0856,1.0913,1.0899,1.0919,1.0952,1.0971,1.0978,1.0984,1.1003,1.101,1.0923,1.0923,1.0923,0,1.0776,1.0804,1.0791,1.0813,1.0821,1.0798,1.0826,1.0831,1.0842,1.0848,1.0833,1.0867,1.0871,1.0906,1.092,1.0927,1.0933,1.0918,1.0978,1.0984,1.0989,1.1007,1.1015,1.0925,1.0925,1.0925,1.0925,0,1.0842,1.0862,1.0883,1.0893,1.0903,1.0928,1.0919,1.093,1.092,1.0917,1.0945,1.0948,1.0963,1.0971,1.0962,1.1005,1.0996,1.098,1.0953,1.0999,1.1016,1.1023,1.0929,1.0928,1.0927,1.0927,0,0,1.0925,1.0926,1.0934,1.0937,1.0941,1.0956,1.098,1.0993,1.1002,1.101,1.1029,1.1053,1.1037,1.1045,1.1036,1.1054,1.1097,1.1035,1.1035,1.1045,1.1143,1.1155,1.1163,1.1087,1.1088,1.109,1.1142,0,1.0981,1.1021,1.1009,1.1048,1.1065,1.1043,1.1063,1.1068,1.1065,1.1079,1.1075,1.1092,1.1071,1.1075,1.1091,1.1088,1.1116,1.1084,1.1104,1.1105,1.1102,1.1172,1.1185,1.1234,1.1148,1.115,1.115,0,1.1053,1.1061,1.1102,1.1101,1.1108,1.1126,1.1136,1.115,1.1154,1.1151,1.1158,1.1145,1.1168,1.1141,1.1171,1.115,1.1157,1.1157,1.1159,1.116,1.113,1.1174,1.125,1.1257,1.1161,1.116,1.1159,0,1.1107,1.113,1.1157,1.116,1.1161,1.1174,1.1174,1.1177,1.1185,1.1194,1.1199,1.1211,1.1217,1.1227,1.1217,1.1199,1.1248,1.1221,1.1246,1.1246,1.1257,1.1256,1.1334,1.1263,1.1263,1.1263,1.1263,0,1.1171,1.1197,1.1181,1.1197,1.1225,1.1211,1.1239,1.1237,1.1239,1.1255,1.1237,1.1252,1.1239,1.1253,1.1245,1.1271,1.1274,1.1271,1.1269,1.1273,1.1273,1.1277,1.1273,1.1265,1.1264,1.1264,1.1263,0,1.1237,1.1228,1.1255,1.1252,1.1252,1.1273,1.127,1.1285,1.128,1.13,1.1304,1.1296,1.1311,1.1302,1.1318,1.1313,1.1346,1.1339,1.1344,1.1342,1.1366,1.1364,1.1449,1.1459,1.1382,1.1383,1.1384,0,1.1278,1.1297,1.1295,1.1304,1.1305,1.132,1.1327,1.1314,1.1322,1.1327,1.1341,1.1355,1.1364,1.1389,1.1385,1.1397,1.139,1.1419,1.1392,1.1394,1.1389,1.1388,1.1389,1.1424,1.1425,1.1426,1.1427,0,1.1351,1.1345,1.1356,1.1365,1.1374,1.1381,1.1386,1.1394,1.138,1.1391,1.1405,1.1413,1.1428,1.1441,1.145,1.1451,1.1437,1.1435,1.1441,1.1445,1.1446,1.1445,1.1358,1.1433,1.1433,1.1432,1.1432,1.1432,1.1405,1.142,1.142,1.1433,1.1435,1.144,1.1453,1.1449,1.146,1.1471,1.1462,1.1479,1.1481,1.1492,1.1495,1.1508,1.1496,1.1505,1.1507,1.151,1.1512,1.1445,1.151,1.151,1.1509,1.1509,1.1509,0,1.1476,1.1475,1.1486,1.1493,1.1503,1.1487,1.1491,1.1501,1.1515,1.1518,1.1528,1.1543,1.1556,1.1552,1.1562,1.1573,1.1567,1.1577,1.1575,1.1575,1.1523,1.1516,1.1582,1.1582,1.1582,1.1582,1.1582,1.1581,1.1514,1.1538,1.1532,1.1556,1.1555,1.157,1.1574,1.1578,1.158,1.1598,1.1607,1.1604,1.1604,1.1614,1.1625,1.1623,1.1628,1.164,1.1636,1.1587,1.1579,1.1573,1.1566,1.1641,1.1641,1.1687,1.1687,1.1688]}]]